TimeMST,TemperatureF,Dew PointF,Humidity,Sea Level PressureIn,VisibilityMPH,Wind Direction,Wind SpeedMPH,Gust SpeedMPH,PrecipitationIn,Events,Conditions,WindDirDegrees,DateUTC
12:53 AM,17.1,8.1,68,30.11,10.0,South,5.8,-,N/A,,Overcast,170,2012-12-10 07:53:00
1:53 AM,17.1,9.0,71,30.09,10.0,South,4.6,-,N/A,,Overcast,170,2012-12-10 08:53:00
2:53 AM,17.1,8.1,68,30.09,10.0,SE,6.9,-,N/A,,Overcast,140,2012-12-10 09:53:00
3:53 AM,18.0,9.0,68,30.09,10.0,ESE,4.6,-,N/A,,Overcast,110,2012-12-10 10:53:00
4:53 AM,17.1,10.0,74,30.08,10.0,SE,3.5,-,N/A,,Overcast,140,2012-12-10 11:53:00
6:53 AM,18.0,9.0,68,30.08,10.0,SSE,5.8,-,N/A,,Overcast,150,2012-12-10 13:53:00
7:53 AM,18.0,9.0,68,30.07,10.0,Calm,Calm,-,N/A,,Overcast,0,2012-12-10 14:53:00
8:53 AM,18.0,8.1,65,30.08,10.0,SSE,4.6,-,N/A,,Overcast,160,2012-12-10 15:53:00
9:06 AM,19.4,8.6,63,29.92,10.0,SSE,5.8,-,N/A,,Overcast,150,2012-12-10 16:06:00
9:32 AM,17.6,10.4,73,29.94,1.8,Calm,Calm,-,0.00,Snow,Light Snow,0,2012-12-10 16:32:00
9:39 AM,17.6,10.4,73,29.94,0.8,Calm,Calm,-,0.00,Snow,Light Snow,0,2012-12-10 16:39:00
9:51 AM,17.6,12.2,79,29.94,0.5,Calm,Calm,-,0.00,Fog-Snow,Snow,0,2012-12-10 16:51:00
9:53 AM,17.1,12.9,84,30.11,0.5,Calm,Calm,-,0.00,Fog-Snow,Snow,0,2012-12-10 16:53:00
10:16 AM,17.6,15.8,93,29.95,0.2,East,3.5,-,0.02,Fog-Snow,Snow,100,2012-12-10 17:16:00
10:27 AM,17.6,15.8,93,29.95,0.5,SSE,3.5,-,0.02,Fog-Snow,Snow,150,2012-12-10 17:27:00
10:36 AM,17.6,15.8,93,29.95,0.2,Calm,Calm,-,0.03,Fog-Snow,Heavy Snow,0,2012-12-10 17:36:00
10:53 AM,18.0,15.1,88,30.11,0.5,Calm,Calm,-,0.04,Fog-Snow,Snow,0,2012-12-10 17:53:00
11:07 AM,17.6,15.8,93,29.95,0.2,Calm,Calm,-,0.01,Fog-Snow,Snow,0,2012-12-10 18:07:00
11:26 AM,19.4,15.8,86,29.94,0.8,Calm,Calm,-,0.02,Snow,Light Snow,0,2012-12-10 18:26:00
11:40 AM,19.4,17.6,93,29.94,1.0,Calm,Calm,-,0.02,Snow,Light Snow,0,2012-12-10 18:40:00
11:53 AM,19.0,17.1,92,30.11,0.8,Calm,Calm,-,0.02,Snow,Light Snow,0,2012-12-10 18:53:00
12:20 PM,21.2,17.6,86,29.95,0.5,Calm,Calm,-,0.01,Fog-Snow,Snow,0,2012-12-10 19:20:00
12:31 PM,19.4,17.6,93,29.94,0.2,Calm,Calm,-,0.02,Fog-Snow,Snow,0,2012-12-10 19:31:00
12:53 PM,19.9,17.1,89,30.10,0.8,Calm,Calm,-,0.03,Snow,Light Snow,0,2012-12-10 19:53:00
1:03 PM,21.2,17.6,86,29.94,1.0,Calm,Calm,-,0.00,Snow,Light Snow,0,2012-12-10 20:03:00
1:14 PM,21.2,17.6,86,29.93,1.2,Calm,Calm,-,0.00,Snow,Light Snow,0,2012-12-10 20:14:00
1:32 PM,21.2,17.6,86,29.93,1.8,Calm,Calm,-,0.00,Snow,Light Snow,0,2012-12-10 20:32:00
1:48 PM,21.2,17.6,86,29.93,1.2,Calm,Calm,-,0.00,Snow,Light Snow,0,2012-12-10 20:48:00
1:53 PM,21.0,18.0,88,30.10,1.5,Calm,Calm,-,0.00,Snow,Light Snow,0,2012-12-10 20:53:00
2:03 PM,21.2,17.6,86,29.94,2.5,WNW,3.5,-,0.00,Snow,Light Snow,300,2012-12-10 21:03:00
2:14 PM,21.2,17.6,86,29.94,1.0,Calm,Calm,-,0.00,Snow,Light Snow,0,2012-12-10 21:14:00
2:25 PM,21.2,17.6,86,29.94,2.0,Calm,Calm,-,0.00,Snow,Light Snow,0,2012-12-10 21:25:00
2:28 PM,21.2,17.6,86,29.94,3.0,Calm,Calm,-,0.00,Snow,Light Snow,0,2012-12-10 21:28:00
2:53 PM,21.0,18.0,88,30.10,10.0,Calm,Calm,-,0.00,,Mostly Cloudy,0,2012-12-10 21:53:00
3:53 PM,19.9,17.1,89,30.11,7.0,SE,3.5,-,N/A,,Overcast,140,2012-12-10 22:53:00
4:53 PM,15.1,10.9,84,30.13,4.0,Calm,Calm,-,N/A,,Clear,0,2012-12-10 23:53:00
5:19 PM,12.2,10.4,92,29.97,9.0,Calm,Calm,-,N/A,,Scattered Clouds,0,2012-12-11 00:19:00
5:28 PM,14.0,12.2,93,29.97,8.0,Calm,Calm,-,N/A,,Mostly Cloudy,0,2012-12-11 00:28:00
5:53 PM,12.9,12.0,96,30.15,10.0,Calm,Calm,-,N/A,,Overcast,0,2012-12-11 00:53:00
6:41 PM,12.2,10.4,92,29.97,10.0,Calm,Calm,-,N/A,,Overcast,0,2012-12-11 01:41:00
6:53 PM,14.0,12.0,92,30.14,10.0,NE,4.6,-,N/A,,Overcast,40,2012-12-11 01:53:00
7:53 PM,14.0,12.0,92,30.15,10.0,ESE,4.6,-,N/A,,Overcast,120,2012-12-11 02:53:00
8:53 PM,15.1,12.9,91,30.15,8.0,ESE,5.8,-,0.00,,Overcast,110,2012-12-11 03:53:00
9:53 PM,17.1,14.0,88,30.14,10.0,ESE,3.5,-,N/A,,Overcast,120,2012-12-11 04:53:00
10:53 PM,16.0,12.9,88,30.15,9.0,Calm,Calm,-,N/A,,Overcast,0,2012-12-11 05:53:00
11:45 PM,15.8,12.2,86,29.98,10.0,North,3.5,-,N/A,,Overcast,350,2012-12-11 06:45:00
11:53 PM,15.1,12.9,91,30.14,10.0,North,4.6,-,N/A,,Overcast,360,2012-12-11 06:53:00